Flag for Finland Weather past 2 weeks in Helsinki, Finland

Now
43 °F

Partly sunny.


Feels Like: 35 °F
Forecast: 38 / 53 °F
Wind: 15 mph from Southwest

Location: Helsinki Malmi Airport


UV Index: 0 (Low)

Visibility: N/A


Pressure: 30.01 "Hg

Humidity: 76%

Dew point: 36 °F

Location of HelsinkiLocation

Historic Weather in Helsinki

°F

Helsinki temperature yesterday

Maximum temperature yesterday: 50 °F (at 4:50 PM)
Minimum temperature yesterday: 27 °F (at 5:50 AM)
Average temperature yesterday: 40 °F

Past Weeks' High & Low Weather Summary

 TemperatureHumidityPressure
High50 °F (Apr 15, 4:50 PM)100% (Apr 6, 9:20 PM)30.33 "Hg (Apr 6, 9:20 PM)
Low23 °F (Apr 4, 6:20 AM)23% (Apr 16, 2:20 PM)29.33 "Hg (Apr 14, 5:20 AM)
Average38 °F71%29.88 "Hg
* Reported Apr 2 10:20 AM — Apr 17 10:20 AM, Helsinki, Weather by CustomWeather, © 2014

Note: Actual official high and low records may vary slightly from our data, if they occured in-between our weather recording intervals... More about our weather records

Advertising

Historic Weather Conditions — Data for Previous 24 hours

 ConditionsComfort  
Time TempWeatherWind HumidityBarometerVisibility
10:20 AM
Apr 17
41 °FPartly sunny.13 mph76%30.01 "HgN/A
9:50 AM41 °FPartly sunny.15 mph76%30.04 "HgN/A
9:20 AM41 °FPassing clouds.16 mph76%30.04 "HgN/A
8:50 AM41 °FPassing clouds.15 mph76%30.04 "HgN/A
8:20 AM41 °FPassing clouds.14 mph76%30.04 "HgN/A
7:50 AM39 °FPassing clouds.12 mph75%30.04 "HgN/A
7:20 AM39 °FPassing clouds.10 mph75%30.07 "HgN/A
6:50 AM37 °FPassing clouds.9 mph81%30.07 "HgN/A
6:20 AM37 °FClear.8 mph81%30.07 "Hg10 mi
5:50 AM37 °FClear.9 mph87%30.07 "Hg10 mi
5:20 AM37 °FPassing clouds.8 mph87%30.09 "HgN/A
4:50 AM37 °FPassing clouds.8 mph87%30.09 "HgN/A
4:20 AM37 °FClear.7 mph81%30.12 "Hg10 mi
3:50 AM37 °FClear.7 mph81%30.12 "Hg10 mi
3:20 AM36 °FPassing clouds.6 mph75%30.15 "HgN/A
2:50 AM36 °FClear.6 mph70%30.15 "Hg10 mi
2:20 AM36 °FClear.3 mph65%30.15 "Hg10 mi
1:50 AM36 °FClear.3 mph56%30.15 "Hg10 mi
1:20 AM37 °FPassing clouds.6 mph52%30.15 "HgN/A
12:50 AM37 °FClear.3 mph52%30.15 "Hg10 mi
12:20 AM37 °FPassing clouds.5 mph56%30.18 "HgN/A
11:50 PM
Apr 16
37 °FPassing clouds.5 mph56%30.18 "HgN/A
11:20 PM39 °FPassing clouds.5 mph52%30.18 "HgN/A
10:50 PM39 °FPassing clouds.5 mph52%30.18 "HgN/A
10:20 PM39 °FPassing clouds.6 mph52%30.18 "HgN/A
9:50 PM41 °FPassing clouds.5 mph49%30.18 "HgN/A
9:20 PM43 °FPassing clouds.8 mph42%30.18 "HgN/A
8:50 PM43 °FPassing clouds.10 mph42%30.18 "HgN/A
8:20 PM45 °FPassing clouds.9 mph42%30.18 "HgN/A
7:50 PM45 °FPassing clouds.8 mph46%30.18 "HgN/A
7:20 PM45 °FPassing clouds.9 mph46%30.18 "HgN/A
6:50 PM46 °FPassing clouds.9 mph43%30.18 "HgN/A
6:20 PM46 °FPassing clouds.12 mph40%30.18 "HgN/A
5:50 PM48 °FSunny.12 mph34%30.18 "Hg10 mi
5:20 PM48 °FPassing clouds.9 mph32%30.18 "HgN/A
4:50 PM50 °FPassing clouds.8 mph25%30.18 "HgN/A
4:20 PM48 °FPassing clouds.9 mph25%30.18 "HgN/A
3:50 PM48 °FPassing clouds.9 mph23%30.18 "HgN/A
3:20 PM48 °FPassing clouds.9 mph25%30.21 "HgN/A
2:50 PM48 °FPassing clouds.8 mph23%30.21 "HgN/A
2:20 PM48 °FPassing clouds.7 mph23%30.21 "HgN/A
1:50 PM46 °FPassing clouds.8 mph25%30.21 "HgN/A
1:20 PM46 °FPassing clouds.10 mph25%30.21 "HgN/A
12:50 PM46 °FPassing clouds.10 mph27%30.21 "HgN/A
12:20 PM45 °FPassing clouds.9 mph29%30.21 "HgN/A
11:50 AM45 °FPassing clouds.12 mph29%30.21 "HgN/A
11:20 AM45 °FPassing clouds.14 mph31%30.21 "HgN/A
Weather by CustomWeather, © 2014

See weather overview